IU3VGK Weather Reports


time (UTC)temp
F
wind
direction
speed
knots
gust
knots
rain 1hr
in
rain 24hr
in
rain mn
in
humidity
%
barometer
mb
20260507213049 59 16 7.0 7.0 0.00 0.00 0.00 70 1020.6
20260507212035 59 16 7.0 7.0 0.00 0.00 0.00 70 1021.3
20260507211020 59 16 7.0 7.0 0.00 0.00 0.00 70 1021.0
20260507210127 60 16 7.0 7.0 0.00 0.00 0.00 70 1020.6
20260507205051 60 16 7.0 7.0 0.00 0.00 0.00 70 1020.6
20260507204038 60 16 7.0 7.0 0.00 0.00 0.00 70 1020.6
20260507203024 60 16 7.0 7.0 0.00 0.00 0.00 70 1020.1
20260507202111 61 16 7.0 7.0 0.00 0.00 0.00 70 1019.6
20260507201058 61 16 7.0 7.0 0.00 0.00 0.00 70 1019.6
20260507200042 61 16 7.0 7.0 0.00 0.00 0.00 69 1020.0
20260507195028 61 16 7.0 7.0 0.00 0.00 0.00 68 1020.6
20260507194115 61 16 7.0 7.0 0.00 0.00 0.00 68 1020.5
20260507193059 61 16 7.0 7.0 0.00 0.00 0.00 66 1019.6
20260507192045 61 16 7.0 7.0 0.00 0.00 0.00 66 1020.6
20260507191051 62 16 7.0 7.0 0.00 0.00 0.00 65 1020.6
20260507190117 62 16 7.0 7.0 0.00 0.00 0.00 62 1018.6
20260507185123 63 16 7.0 7.0 0.00 0.00 0.00 63 1018.6
20260507184048 63 16 7.0 7.0 0.00 0.00 0.00 63 1018.6
20260507183035 64 16 7.0 7.0 0.00 0.00 0.00 61 1019.6
20260507182021 65 16 7.0 7.0 0.00 0.00 0.00 59 1019.6
20260507181107 65 16 7.0 7.0 0.00 0.00 0.00 56 1018.6
20260507180052 65 16 7.0 7.0 0.00 0.00 0.00 54 1018.6
20260507175038 66 16 7.0 7.0 0.00 0.00 0.00 55 1018.6
20260507174023 66 16 7.0 7.0 0.00 0.00 0.00 54 1018.6
20260507173250 67 16 7.0 7.0 0.00 0.00 0.00 54 1018.6
20260507172055 67 16 7.0 7.0 0.00 0.00 0.00 55 1018.6
20260507171042 67 16 7.0 7.0 0.00 0.00 0.00 56 1017.6
20260507170027 68 16 7.0 7.0 0.00 0.00 0.00 60 1017.6
20260507165113 69 16 7.0 7.0 0.00 0.00 0.00 59 1017.6
20260507164059 68 16 7.0 7.0 0.00 0.00 0.00 54 1017.6
20260507163045 69 16 7.0 7.0 0.00 0.00 0.00 53 1018.6
20260507162031 68 16 7.0 7.0 0.00 0.00 0.00 53 1018.6
20260507161017 67 16 7.0 7.0 0.00 0.00 0.00 52 1017.6
20260507160124 67 11 2.6 2.6 0.00 0.00 0.00 51 1017.6
20260507155050 66 16 7.0 7.0 0.00 0.00 0.00 51 1017.6
20260507154036 65 16 7.0 7.0 0.00 0.00 0.00 52 1017.6
20260507153022 66 16 7.0 7.0 0.00 0.00 0.00 54 1018.6
20260507152127 67 16 7.0 7.0 0.00 0.00 0.00 53 1018.6
20260507151051 68 16 7.0 7.0 0.00 0.00 0.00 59 1017.8
20260507150037 69 16 7.0 7.0 0.00 0.00 0.00 59 1017.6
20260507145023 69 16 7.0 7.0 0.00 0.00 0.00 57 1017.6
20260507144110 68 16 7.0 7.0 0.00 0.00 0.00 61 1018.4
20260507143116 69 16 7.0 7.0 0.00 0.00 0.00 60 1018.6
20260507142036 68 16 7.0 7.0 0.00 0.00 0.00 63 1018.6
20260507141022 68 16 7.0 7.0 0.00 0.00 0.00 63 1018.0
20260507140109 68 16 7.0 7.0 0.00 0.00 0.00 61 1017.6
20260507135055 67 16 7.0 7.0 0.00 0.00 0.00 65 1017.6
20260507134041 68 16 7.0 7.0 0.00 0.00 0.00 63 1018.6
20260507133027 69 16 7.0 7.0 0.00 0.00 0.00 61 1019.1
20260507132113 67 16 7.0 7.0 0.00 0.00 0.00 55 1018.6
20260507131118 67 17 6.1 7.8 0.00 0.00 0.00 52 1018.6
20260507130044 68 189 3.5 7.0 0.00 0.01 0.00 50 1018.6
20260507125030 69 189 3.5 5.2 0.00 0.02 0.00 51 1018.6
20260507124017 68 189 3.5 3.5 0.00 0.02 0.00 50 1018.8
20260507123104 66 189 3.5 3.5 0.00 0.04 0.00 52 1019.6
20260507122049 69 189 3.5 6.1 0.00 0.05 0.00 54 1019.6
20260507121035 72 189 3.5 3.5 0.00 0.08 0.00 59 1019.6
20260507120022 73 189 3.5 7.0 0.00 0.18 0.00 60 1018.6
20260507115108 73 189 3.5 5.2 0.00 0.24 0.00 61 1018.6
20260507114053 73 151 1.7 7.0 0.00 0.25 0.00 60 1018.6
20260507113039 73 151 1.7 6.1 0.00 0.26 0.00 59 1018.6
20260507112025 73 151 1.7 1.7 0.00 0.26 0.00 60 1018.6
20260507111152 72 151 1.7 5.2 0.00 0.26 0.00 61 1018.6
20260507110057 71 151 1.7 5.2 0.00 0.26 0.00 63 1018.6
20260507105044 72 151 1.7 3.5 0.00 0.26 0.00 61 1018.6
20260507104029 72 151 1.7 3.5 0.00 0.27 0.00 60 1018.6
20260507103117 70 151 1.7 1.7 0.00 0.27 0.00 65 1018.6
20260507102103 71 151 1.7 1.7 0.00 0.27 0.00 61 1017.6
20260507101048 71 151 1.7 3.5 0.00 0.27 0.00 61 1018.6
20260507100034 71 151 1.7 3.5 0.00 0.27 0.00 62 1018.6
20260507095020 70 151 1.7 1.7 0.00 0.27 0.00 62 1018.6
20260507094107 69 151 1.7 1.7 0.00 0.27 0.00 65 1017.6
20260507093132 68 151 1.7 5.2 0.00 0.27 0.00 65 1018.6
20260507092038 68 151 1.7 1.7 0.00 0.27 0.00 69 1019.6
20260507091024 67 151 1.7 1.7 0.00 0.27 0.00 71 1018.6
20260507090112 67 151 1.7 5.2 0.00 0.27 0.00 72 1018.6
20260507085058 65 151 1.7 1.7 0.00 0.27 0.00 72 1018.6
20260507084044 63 151 1.7 1.7 0.00 0.27 0.00 70 1018.6
20260507083030 63 151 1.7 3.5 0.00 0.27 0.00 72 1019.6
20260507082116 63 151 1.7 1.7 0.00 0.27 0.00 72 1019.6
20260507081102 62 151 1.7 1.7 0.00 0.27 0.00 78 1018.8
20260507080048 61 151 1.7 1.7 0.00 0.27 0.00 76 1018.6
20260507075034 61 151 1.7 1.7 0.00 0.27 0.00 77 1018.6
20260507074019 61 151 1.7 1.7 0.00 0.27 0.00 75 1019.5
20260507073106 60 151 1.7 1.7 0.00 0.27 0.00 75 1018.8
20260507072050 59 151 1.7 1.7 0.00 0.27 0.00 75 1018.6
20260507071034 57 152 1.7 1.7 0.00 0.27 0.00 75 1018.6
20260507070119 57 152 1.7 1.7 0.00 0.27 0.00 76 1018.6
20260507065059 62 153 1.7 1.7 0.00 0.27 0.00 73 1018.6
20260507064044 58 157 0.9 1.7 0.00 0.28 0.00 70 1018.6
20260507063027 55 315 0.0 0.0 0.00 0.30 0.00 70 1017.6
20260507062110 55 315 0.0 0.0 0.00 0.31 0.00 70 1016.6
20260507061055 54 315 0.0 0.0 0.00 0.35 0.00 70 1017.0
20260507060035 54 332 0.9 2.6 0.00 0.38 0.00 77 1018.0
20260507055020 54 333 2.6 2.6 0.00 0.50 0.00 84 1018.6
20260507054104 53 333 2.6 2.6 0.00 0.66 0.00 85 1018.6
20260507053046 53 333 2.6 2.6 0.00 0.74 0.00 87 1016.6
20260507052032 53 333 2.6 2.6 0.00 0.76 0.00 84 1018.6
20260507051114 52 333 2.6 2.6 0.00 0.78 0.00 76 1018.6
20260507050117 53 333 2.6 2.6 0.00 0.79 0.00 80 1017.6
20260507045040 52 333 2.6 2.6 0.00 0.81 0.00 81 1017.6
20260507044021 52 333 2.6 2.6 0.00 0.85 0.00 85 1017.6
20260507043109 52 333 2.6 2.6 0.00 0.86 0.00 80 1015.6
20260507042050 51 333 2.6 2.6 0.00 0.86 0.00 82 1015.6
20260507041033 51 333 2.6 2.6 0.00 0.87 0.00 87 1017.6
20260507040119 52 333 2.6 2.6 0.00 0.87 0.00 83 1017.6
20260507035058 52 333 2.6 2.6 0.00 0.89 0.00 89 1016.6
20260507034044 53 333 2.6 2.6 0.00 0.89 0.00 87 1016.6
20260507033026 53 333 2.6 2.6 0.00 0.89 0.00 81 1015.6
20260507032110 52 333 2.6 2.6 0.00 0.89 0.00 81 1015.6
20260507031055 52 333 2.6 2.6 0.00 0.89 0.00 81 1017.6
20260507030052 52 333 2.6 2.6 0.00 0.89 0.00 81 1017.6
20260507025114 52 333 2.6 2.6 0.00 0.89 0.00 80 1016.6
20260507024057 52 333 2.6 2.6 0.00 0.89 0.00 81 1016.6
20260507023034 53 333 2.6 2.6 0.00 0.89 0.00 80 1017.6
20260507022132 53 333 2.6 2.6 0.00 0.89 0.00 81 1017.6
20260507021055 53 333 2.6 2.6 0.00 0.89 0.00 80 1016.8
20260507020055 53 333 2.6 2.6 0.00 0.89 0.00 80 1016.6
20260507015041 53 333 2.6 2.6 0.00 0.89 0.00 80 1016.6
20260507014104 52 330 2.6 2.6 0.00 0.89 0.00 80 1016.6
20260507013046 51 329 2.6 2.6 0.00 0.89 0.00 80 1016.6
20260507012031 51 329 2.6 2.6 0.00 0.89 0.00 80 1016.6
20260507011135 51 337 3.5 3.5 0.00 0.89 0.00 80 1016.6
20260507010057 51 340 3.5 3.5 0.00 0.89 0.00 80 1016.6
20260507005039 52 340 3.5 3.5 0.00 0.89 0.00 80 1016.6
20260507004042 53 340 3.5 3.5 0.00 0.89 0.00 78 1016.6
20260507003109 54 340 3.5 3.5 0.00 0.89 0.00 76 1017.0
20260507002051 54 340 3.5 3.5 0.00 0.89 0.00 78 1017.6
20260507001053 53 340 3.5 3.5 0.00 0.89 0.00 80 1017.3
20260507000119 54 340 3.5 3.5 0.00 0.89 0.00 80 1016.6
20260506235059 54 340 3.5 3.5 0.00 0.89 0.00 80 1016.6
20260506234104 55 340 3.5 3.5 0.00 0.89 0.00 80 1016.6
20260506233027 55 340 3.5 3.5 0.00 0.89 0.00 80 1015.6
20260506232110 55 340 3.5 3.5 0.00 0.89 0.00 80 1017.6
20260506231116 56 340 3.5 3.5 0.00 0.89 0.00 80 1017.6
20260506230035 56 340 3.5 3.5 0.00 0.89 0.00 80 1016.6
20260506225020 56 340 3.5 3.5 0.00 0.89 0.00 79 1016.6
20260506224103 56 340 3.5 3.5 0.00 0.89 0.00 80 1016.6
20260506223046 56 340 3.5 3.5 0.00 0.89 0.00 79 1015.6
20260506222031 56 340 3.5 3.5 0.00 0.89 0.00 79 1015.6
20260506221114 56 340 3.5 3.5 0.00 0.89 0.00 79 1016.6
20260506220058 56 340 3.5 3.5 0.00 0.89 0.00 78 1016.6
20260506215039 55 340 3.5 3.5 0.00 0.89 0.89 78 1016.6
20260506214120 55 340 3.5 3.5 0.00 0.89 0.89 78 1016.6